Location: Wildlife_Club
(35.6000°N, 81.4330°W)
Time: 23:35:06
(UTC-05:00)

Daily predictions for brighter satellites

Satellite Brightness Start Highest point End
(mag) Time Altitude Azimuth Time Altitude Azimuth Time Altitude Azimuth
Nadezhda 1 Rocket 3.9 18:33:48 10° N 18:39:54 80° E 18:45:58 10° S
Cosmos 1140 Rocket 3.8 18:39:38 10° S 18:44:25 42° ESE 18:49:16 10° NNE
DELTA 2 R/B (1) 3.7 18:39:13 10° WNW 18:44:50 68° NNE 18:50:25 10° E
Cosmos 1461 2.8 18:41:15 10° NNW 18:45:15 68° ENE 18:49:23 10° SE
Cosmos 1602 4.3 18:44:13 10° SSE 18:47:44 35° E 18:51:18 10° NNE
Resurs 01 Rocket 3.0 18:45:25 10° ESE 18:48:26 18° ENE 18:51:27 10° NNE
CENTAUR R/B 4.2 18:40:57 10° NW 18:48:41 52° WSW 18:56:42 10° S
Cosmos 1300 Rocket 4.1 18:45:11 10° SSE 18:49:13 37° E 18:53:18 10° NNE
OAO 3 Copernicus 4.4 18:46:32 10° W 18:51:38 78° S 18:56:41 10° ESE
Cosmos 2292 Rocket 4.2 18:47:16 10° S 18:52:06 71° E 18:58:42 10° N
Cosmos 614 Rocket 4.5 18:47:41 10° SSE 18:52:19 36° E 18:56:57 10° NE
Cosmos 1833 4.2 18:48:33 10° SSW 18:54:14 74° ESE 18:59:54 10° NNE
Abrixas rocket 3.4 18:51:25 10° SSW 18:54:20 28° SE 18:56:51 12° ENE
ALOS 3.0 18:52:12 10° SE 18:56:16 31° ENE 19:00:21 10° N
COSMO-SKYMED 1 3.8 18:52:58 10° N 18:57:09 47° WNW 19:01:17 10° SSW
Cosmos 2181 Rocket 4.2 18:53:50 10° N 18:59:53 48° E 19:05:59 10° SSE
Spot 2 Rocket 4.4 18:56:33 10° SE 19:00:44 27° ENE 19:04:56 10° NNE
FREGAT/IRIS 2.8 19:00:55 10° SSE 19:03:54 50° ENE 19:06:55 10° N
NOSS 8 (E) 4.4 19:01:17 10° SSW 19:04:44 70° ESE 19:08:18 10° NE
SL-16 R/B 2.8 18:59:54 10° NNW 19:05:31 63° WSW 19:11:05 10° S
Cosmos 1340 2.6 19:04:25 10° N 19:08:10 59° E 19:11:54 10° SSE
Cosmos 1709 Rocket 4.0 19:05:12 10° S 19:11:27 90° E 19:17:39 10° N
Cosmos 1850 Rocket 4.2 19:06:28 10° S 19:11:31 48° ESE 19:16:38 10° NNE
Cosmos 2074 Rocket 4.5 19:06:04 10° SSE 19:11:40 36° E 19:17:18 10° NNE
Cosmos 2184 Rocket 4.5 19:08:55 10° SSE 19:14:36 37° E 19:20:16 10° NNE
FengYun 1-2 T 4.3 19:12:58 10° SSE 19:18:16 53° ENE 19:23:35 10° N
NOSS 8 (H) 4.3 19:15:25 10° SSW 19:18:50 70° ESE 19:21:51 13° NE
Cosmos 1954 Rocket 4.5 19:14:00 10° SSW 19:19:07 64° WNW 19:24:19 10° N
Helios 1B rocket 3.5 19:18:13 18° ENE 19:19:53 23° E 19:23:11 10° SSE
HJ-1C 3.5 19:17:46 10° SSE 19:21:02 50° ENE 19:24:19 10° N
OTV 4 2.8 19:20:20 10° S 19:21:31 12° SSE 19:21:31 12° SSE
Cosmos 2322 Rocket 3.5 19:16:34 10° NW 19:21:51 43° WSW 19:27:06 10° S
SJ-6B 2.8 19:18:19 10° SSE 19:22:21 87° W 19:26:19 10° NNW
Okean 1 Rocket 3.0 19:19:30 10° S 19:23:57 72° E 19:28:27 10° NNE
Tiangong 2 1.5 19:21:53 10° WNW 19:24:53 55° SSW 19:26:31 23° SE
FENGYUN 3A 3.6 19:20:45 10° SSE 19:26:05 64° ENE 19:31:26 10° N
Genesis I 4.2 19:24:15 10° N 19:27:38 27° NE 19:28:05 26° ENE
Meteor 1-19 Rocket 4.2 19:24:27 10° N 19:30:10 78° E 19:35:57 10° SSE
Hubble Space Telescope 2.7 19:27:52 10° SSW 19:30:24 16° SSE 19:31:23 15° SE
Gbstr 26 Del rocket 3.6 19:30:38 10° WSW 19:34:19 43° NW 19:36:53 17° NNE
Cosmos 2322 3.6 19:32:34 10° NNW 19:38:19 81° ENE 19:44:00 10° SSE
Cosmos 1238 Rocket 2.8 19:36:17 10° NNW 19:39:11 53° W 19:42:07 10° S
Atlas Centaur 2 4.4 19:40:37 10° S 19:42:39 11° SSE 19:43:34 11° SE
CZ-2D R/B 3.4 19:43:32 46° E 19:43:39 46° ENE 19:47:19 10° N
GPS 2-04 Rocket1 2.9 19:41:10 10° WSW 19:45:25 64° SSE 19:46:29 46° ESE
Cosmos 2285 Rocket 4.4 19:39:45 10° N 19:45:45 39° ENE 19:47:51 31° ESE
GEOS 3 Rocket 4.0 19:41:12 10° NNE 19:46:24 67° NW 19:51:38 10° SW
Cosmos 1025 Rocket 3.1 19:42:39 10° N 19:46:57 53° E 19:48:42 32° SE
H-2A R/B 2.5 19:46:26 20° SSE 19:48:54 78° ENE 19:52:38 10° N
Cosmos 1536 3.2 19:45:42 10° SSW 19:49:39 65° W 19:53:38 10° N
SL-19 R/B 4.3 19:45:43 10° SSE 19:51:20 89° ENE 19:57:18 10° NNW
Okean 1-7 Rocket 3.5 19:48:39 10° N 19:53:11 88° E 19:57:39 10° S
COSMOS 2428 2.8 19:48:04 10° NNW 19:53:40 55° ENE 19:55:38 37° ESE
Meteor 1-23 Rocket 4.1 19:48:08 10° N 19:53:56 72° E 19:59:39 10° SSE
Cosmos 2237 4.1 19:48:13 10° NNW 19:53:57 72° ENE 19:57:28 24° SSE
Cosmos 2333 4.4 19:49:28 10° N 19:55:02 49° ENE 19:56:21 41° ESE
Meteor 2-4 Rocket 3.6 19:50:42 10° N 19:56:15 87° W 20:01:38 10° S
SL-08 ROCKET BODY 4.5 19:50:26 10° S 19:56:36 83° W 20:02:49 10° N
Cosmos 2237 Rocket 3.9 19:53:26 10° N 19:55:53 18° NE 19:55:53 18° NE
Cosmos 2219 3.7 20:05:25 10° SW 20:11:05 60° WNW 20:16:46 10° NNE
Cosmos 2360 Rocket 3.3 20:07:22 10° NW 20:12:41 43° WSW 20:17:59 10° S
Cosmos 2219 Rocket 2.8 20:09:17 10° N 20:13:35 40° NE 20:13:35 40° NE
Cosmos 2227 Rocket 3.9 20:12:02 10° S 20:13:25 18° S 20:13:25 18° S
Cosmos 1570 Rocket 4.4 20:16:08 10° NNW 20:21:17 60° WSW 20:24:14 25° S
Resurs 01 Rocket 3.2 20:20:37 10° SSW 20:24:37 34° W 20:28:39 10° NNW
DELTA 2 R/B (1) 4.0 20:25:49 10° WNW 20:31:15 53° SSW 20:31:31 52° SSW
ATLAS CENTAUR R/B 3.6 20:28:14 10° SW 20:30:46 25° WSW 20:30:46 25° WSW
BREEZE-M DEB (TANK) 4.3 20:30:14 10° NW 20:34:23 65° NE 20:35:01 62° ENE
Helios 1A 4.5 20:40:56 34° WNW 20:40:56 34° WNW 20:43:43 10° NNW
Cosmos 2333 Rocket 3.2 20:42:47 10° NNW 20:46:14 37° N 20:46:14 37° N
USA 229 DEB 3.7 20:47:19 10° NNW 20:54:30 82° WSW 20:54:32 82° SW
USA 229 3.7 20:47:25 10° NNW 20:54:36 83° WSW 20:54:36 83° WSW
